[[{"header":{"parameterUnit":"m.s-1","parameterCategory":1,"la1":30.2991,"la2":30.254,"lo1":-89.0895,"lo2":-89.0444,"dy":0.0017,"dx":0.0017,"nx":28,"ny":28,"refTime":"2024-04-16T21:00:00:Z","depth":0,"parameterNumber":2,"parameterNumberName":"U-component_of_WINDS"},"data":[0,0,0,0,0,0,0,0,0,0,0,0,0,0,0,0,0,0,0,0,0,0,0,0,0,0,0,0,0,0,0,0,0,0,0,0,0,0,0,0,0,0,0,0,0,0,0,0,0,0,0,0,0,0,0,0,0,0,-2.8158,-2.8157,0,-2.8111,-2.811,-2.8109,-2.8036,-2.8035,-2.8034,-2.8032,-2.7983,-2.7983,-2.7983,0,0,0,0,0,0,0,0,0,0,0,0,0,-2.8185,-2.8184,-2.8158,-2.8157,-2.8156,-2.8111,-2.811,-2.8109,-2.8036,-2.8035,-2.8033,-2.8032,-2.7983,-2.7983,-2.7983,0,0,0,0,0,0,0,0,0,0,0,0,0,-2.8159,-2.8184,-2.8158,-2.8115,-2.811,-2.8111,-2.811,-2.8109,-2.8037,-2.8035,-2.8033,-2.8031,-2.7983,-2.7983,-2.7983,-2.8021,0,0,-2.7982,-2.7982,0,0,0,0,0,0,0,0,-2.816,-2.8158,-2.8121,-2.8118,-2.8113,-2.8077,-2.8101,-2.808,-2.8037,-2.8065,-2.8032,-2.803,-2.8016,-2.8013,-2.8008,-2.8019,-2.8017,-2.7982,-2.7982,-2.7982,-2.7982,0,0,0,0,0,0,0,-2.8162,-2.8159,-2.8139,-2.8121,-2.8116,-2.8098,-2.8092,-2.8097,-2.8052,-2.8062,-2.8057,-2.8052,-2.8013,-2.8009,-2.8007,-2.8016,-2.7982,-2.7982,-2.7982,-2.7982,-2.8057,-2.8059,0,0,0,0,0,0,-2.817,-2.8161,-2.814,-2.8137,-2.8132,-2.8099,-2.8092,-2.8091,-2.8052,-2.8044,-2.8054,-2.8049,-2.801,-2.8007,-2.8005,-2.8047,-2.7982,-2.7982,-2.7982,-2.8055,-2.8057,-2.806,0,0,0,0,0,0,-2.8171,-2.8169,-2.8142,-2.8148,-2.8143,-2.81,-2.8099,-2.8091,-2.8086,-2.8045,-2.8037,-2.8058,-2.8008,-2.8005,-2.8018,-2.8044,-2.7982,-2.7982,-2.8052,-2.8056,-2.8059,-2.8132,0,0,0,0,0,0,-2.8172,-2.817,-2.8184,-2.8149,-2.8143,-2.8156,-2.8101,-2.8091,-2.8086,-2.8079,-2.8047,-2.8039,-2.8006,-2.8019,-2.8018,-2.8043,-2.7982,-2.805,-2.8054,-2.8058,-2.8127,-2.8138,-2.8146,0,0,0,0,0,-2.8174,-2.8206,-2.8185,-2.8183,-2.816,-2.8158,-2.8155,-2.8117,-2.8089,-2.8102,-2.8077,-2.804,-2.8042,-2.8021,-2.8019,-2.8045,-2.8048,-2.8053,-2.8057,-2.8123,-2.8136,-2.8146,0,0,0,0,0,0,-2.8244,-2.8201,-2.8177,-2.8199,-2.8183,-2.8146,-2.8161,-2.8131,-2.8122,-2.8116,-2.8069,-2.8062,-2.8081,-2.8064,-2.8041,-2.808,-2.804,-2.8044,-2.809,-2.8102,-2.8111,-2.8114,-2.7982,0,0,0,0,0,-2.8263,-2.8265,-2.8227,-2.825,-2.8244,-2.8205,-2.8202,-2.8175,-2.8156,-2.8148,-2.8123,-2.8107,-2.8103,-2.8102,-2.8097,-2.8126,-2.8117,-2.8143,-2.8152,-2.816,-2.8164,-2.8178,-2.8189,-2.8075,-2.8075,-2.8075,0,0,-2.83,-2.8277,-2.8281,-2.8264,-2.8248,-2.8252,-2.8199,-2.8205,-2.8207,-2.8149,-2.816,-2.8142,-2.812,-2.8141,-2.8149,-2.8127,-2.8194,-2.8166,-2.8173,-2.8172,-2.8184,-2.8195,-2.8205,-2.8078,-2.8078,-2.8077,0,0,-2.837,-2.8353,-2.837,-2.8357,-2.8334,-2.8308,-2.8313,-2.8281,-2.8266,-2.8277,-2.8234,-2.8236,-2.8231,-2.8218,-2.821,-2.8278,-2.8244,-2.8278,-2.8327,-2.8341,-2.835,-2.8358,-2.8381,-2.8391,-2.8282,-2.8282,-2.8282,0,-2.8419,-2.8423,-2.8383,-2.8392,-2.8386,-2.8336,-2.8353,-2.8341,-2.8318,-2.8315,-2.8292,-2.8286,-2.8268,-2.8285,-2.8302,-2.8298,-2.8301,-2.828,-2.8352,-2.836,-2.8366,-2.8388,-2.8397,-2.8286,-2.8286,-2.8286,-2.8285,0,-2.8484,-2.8488,-2.8505,-2.8485,-2.8481,-2.8494,-2.8457,-2.8458,-2.8431,-2.8408,-2.842,-2.8397,-2.8386,-2.8389,-2.8363,-2.8403,-2.8391,-2.8361,-2.8318,-2.8382,-2.8402,-2.841,-2.8292,-2.8291,-2.829,-2.8289,0,0,-2.8595,-2.8554,-2.8561,-2.8551,-2.8524,-2.8526,-2.8538,-2.8528,-2.853,-2.8516,-2.8525,-2.8523,-2.8496,-2.8487,-2.846,-2.8473,-2.8528,-2.8441,-2.844,-2.8457,-2.8571,-2.8593,-2.8603,-2.8507,-2.8508,-2.8509,-2.8572,0,-2.8658,-2.8675,-2.8641,-2.8666,-2.8669,-2.8623,-2.8633,-2.8617,-2.8597,-2.8596,-2.8574,-2.8573,-2.8537,-2.8532,-2.8543,-2.8519,-2.855,-2.8514,-2.8513,-2.8514,-2.8518,-2.8613,-2.8636,-2.8696,-2.858,-2.8581,-2.8582,0,-2.8733,-2.8724,-2.875,-2.8722,-2.8722,-2.8732,-2.8721,-2.8722,-2.8704,-2.8688,-2.868,-2.8648,-2.8658,-2.8619,-2.8632,-2.8609,-2.8607,-2.8595,-2.8597,-2.8593,-2.855,-2.8611,-2.8715,-2.8724,-2.8594,-2.8593,-2.8592,0,-2.881,-2.8805,-2.882,-2.8813,-2.8781,-2.8789,-2.8776,-2.8757,-2.8754,-2.8745,-2.8742,-2.8734,-2.873,-2.8725,-2.8692,-2.8667,-2.8709,-2.8667,-2.8695,-2.8696,-2.8704,-2.8704,-2.8807,-2.8706,-2.8706,-2.8706,-2.8706,0,-2.8883,-2.89,-2.8854,-2.8863,-2.8881,-2.8843,-2.8862,-2.8845,-2.8828,-2.8833,-2.8793,-2.8798,-2.8755,-2.8757,-2.8731,-2.8746,-2.8744,-2.8731,-2.8724,-2.8734,-2.8736,-2.873,-2.8725,-2.8708,-2.8708,-2.8707,-2.8707,0,-2.8971,-2.894,-2.8953,-2.8923,-2.8916,-2.8931,-2.8905,-2.8912,-2.889,-2.8897,-2.8896,-2.8862,-2.8861,-2.8829,-2.8821,-2.8804,-2.8829,-2.8814,-2.8835,-2.8829,-2.8859,-2.8856,-2.8962,-2.8973,-2.8866,-2.8867,-2.8868,0,-2.9018,-2.9031,-2.9002,-2.9003,-2.8992,-2.8994,-2.8991,-2.8954,-2.8953,-2.8935,-2.8944,-2.8941,-2.8935,-2.8937,-2.8911,-2.8905,-2.889,-2.8927,-2.8888,-2.8898,-2.8889,-2.8888,-2.8889,-2.8935,-2.8936,-2.8937,-2.8938,0,-2.9106,-2.9091,-2.9088,-2.9081,-2.9079,-2.9071,-2.9061,-2.9064,-2.9024,-2.9024,-2.9024,-2.902,-2.9013,-2.901,-2.9,-2.8987,-2.8956,-2.8951,-2.8957,-2.8966,-2.8977,-2.8971,-2.8855,-2.8948,-2.8947,-2.8946,-2.8946,-2.8945,-2.9174,-2.9183,-2.9165,-2.9164,-2.9153,-2.9144,-2.915,-2.9129,-2.9128,-2.912,-2.9099,-2.9102,-2.9085,-2.9068,-2.9058,-2.906,-2.9041,-2.905,-2.9052,-2.9054,-2.906,-2.8979,-2.9058,-2.9058,-2.9058,-2.9057,-2.9057,0,-2.9259,-2.9245,-2.9245,-2.9232,-2.9231,-2.9204,-2.9192,-2.9193,-2.9196,-2.9183,-2.918,-2.9179,-2.9177,-2.9152,-2.9146,-2.9153,-2.9138,-2.9152,-2.915,-2.9148,-2.9077,-2.9072,-2.9164,-2.9164,-2.9164,-2.9164,-2.9164,-2.9164,-2.9303,-2.9316,-2.93,-2.9308,-2.9294,-2.9297,-2.9293,-2.9285,-2.9275,-2.9276,-2.9274,-2.9258,-2.9241,-2.9234,-2.9231,-2.9223,-2.9223,-2.9241,-2.9229,-2.9163,-2.9153,-2.9143,-2.9138,-2.9242,-2.9242,-2.9299,-2.93,-2.93]},{"header":{"parameterUnit":"m.s-1","parameterCategory":1,"la1":30.2991,"la2":30.254,"lo1":-89.0895,"lo2":-89.0444,"dy":0.0017,"dx":0.0017,"nx":28,"ny":28,"refTime":"2024-04-16T21:00:00:Z","depth":0,"parameterNumber":3,"parameterNumberName":"V-component_of_WINDS"},"data":[0,0,0,0,0,0,0,0,0,0,0,0,0,0,0,0,0,0,0,0,0,0,0,0,0,0,0,0,0,0,0,0,0,0,0,0,0,0,0,0,0,0,0,0,0,0,0,0,0,0,0,0,0,0,0,0,0,0,2.9264,2.9265,0,2.9328,2.9328,2.9329,2.9349,2.9348,2.9348,2.9348,2.9412,2.9414,2.9416,0,0,0,0,0,0,0,0,0,0,0,0,0,2.916,2.9161,2.9264,2.9265,2.9266,2.9327,2.9328,2.9329,2.9349,2.9348,2.9348,2.9348,2.9411,2.9414,2.9416,0,0,0,0,0,0,0,0,0,0,0,0,0,2.9212,2.9162,2.9264,2.9283,2.9285,2.9327,2.9328,2.9329,2.9349,2.9348,2.9348,2.9347,2.941,2.9413,2.9416,2.9444,0,0,2.9425,2.9427,0,0,0,0,0,0,0,0,2.9209,2.9216,2.9279,2.9282,2.9284,2.933,2.9315,2.9368,2.9349,2.9325,2.9348,2.9347,2.9385,2.939,2.9403,2.9447,2.9449,2.9426,2.9427,2.9429,2.943,0,0,0,0,0,0,0,2.9205,2.9213,2.9289,2.928,2.9283,2.9288,2.9295,2.9325,2.9356,2.9327,2.9328,2.9336,2.9386,2.94,2.9404,2.945,2.9426,2.9428,2.943,2.9431,2.9521,2.9522,0,0,0,0,0,0,2.9199,2.921,2.9287,2.9291,2.9245,2.929,2.9298,2.9316,2.9356,2.9362,2.9336,2.9336,2.9395,2.9401,2.9407,2.9443,2.9429,2.9431,2.9433,2.9521,2.9522,2.9522,0,0,0,0,0,0,2.9196,2.9205,2.9285,2.9251,2.9262,2.9293,2.9312,2.9317,2.9331,2.9363,2.9369,2.9344,2.9395,2.9403,2.9435,2.9445,2.9433,2.9436,2.952,2.9521,2.9522,2.9514,0,0,0,0,0,0,2.9193,2.9204,2.9215,2.9251,2.9263,2.9312,2.9313,2.9319,2.9336,2.9337,2.9372,2.9378,2.9395,2.943,2.9438,2.9449,2.9438,2.9519,2.952,2.9522,2.9514,2.9515,2.9516,0,0,0,0,0,2.9189,2.921,2.9216,2.9225,2.9277,2.9312,2.9319,2.9339,2.9337,2.9348,2.9369,2.9377,2.9443,2.9433,2.9442,2.9454,2.9519,2.952,2.9521,2.9513,2.9515,2.9516,0,0,0,0,0,0,2.9174,2.9215,2.9222,2.9255,2.928,2.9315,2.933,2.9339,2.9365,2.9365,2.9388,2.9396,2.9427,2.9444,2.9433,2.9484,2.9481,2.9484,2.9472,2.9473,2.9474,2.947,2.944,0,0,0,0,0,2.9174,2.9199,2.9234,2.9259,2.9272,2.9299,2.9315,2.9328,2.9355,2.9365,2.9388,2.9414,2.9441,2.9458,2.9484,2.9516,2.9524,2.9529,2.953,2.953,2.9533,2.9553,2.9555,2.9527,2.9527,2.9527,0,0,2.9175,2.9201,2.9215,2.9257,2.9278,2.9304,2.9308,2.9334,2.9353,2.9369,2.9402,2.9419,2.9449,2.9482,2.9497,2.9497,2.9543,2.9532,2.9532,2.9535,2.9554,2.9557,2.9559,2.9528,2.9527,2.9527,0,0,2.9191,2.9212,2.9237,2.9258,2.929,2.9308,2.9314,2.9348,2.9361,2.9394,2.9407,2.9429,2.9474,2.9496,2.9513,2.9537,2.9545,2.9544,2.955,2.9569,2.9571,2.9573,2.9583,2.9586,2.9547,2.9547,2.9547,0,2.9188,2.9227,2.9248,2.9274,2.9293,2.9308,2.9334,2.9353,2.9392,2.9404,2.9403,2.9461,2.9482,2.952,2.9526,2.9539,2.9547,2.9541,2.9569,2.9571,2.9574,2.9583,2.9587,2.9547,2.9547,2.9547,2.9547,0,2.9223,2.925,2.9266,2.9304,2.9324,2.9349,2.9374,2.9391,2.9403,2.9421,2.9454,2.948,2.9513,2.9523,2.9533,2.9563,2.9562,2.9564,2.9562,2.9576,2.9585,2.9589,2.9546,2.9546,2.9546,2.9547,0,0,2.923,2.928,2.9285,2.9304,2.934,2.9362,2.9388,2.942,2.9435,2.9461,2.9485,2.9523,2.9526,2.9545,2.9558,2.9574,2.9594,2.9575,2.9576,2.9579,2.9629,2.9628,2.9632,2.9599,2.96,2.96,2.9627,0,2.9251,2.93,2.9319,2.9359,2.9385,2.94,2.9423,2.9449,2.9466,2.949,2.951,2.9537,2.9538,2.955,2.9566,2.9588,2.9604,2.9586,2.9621,2.9622,2.9615,2.9636,2.9635,2.9659,2.9631,2.9631,2.9632,0,2.9282,2.931,2.9352,2.9387,2.9398,2.9419,2.9451,2.9473,2.9502,2.9514,2.9536,2.9548,2.9577,2.9572,2.9612,2.96,2.9615,2.9628,2.9629,2.9634,2.9629,2.9643,2.9667,2.9671,2.9637,2.9637,2.9637,0,2.9285,2.9332,2.9364,2.9379,2.942,2.9434,2.9452,2.9481,2.9499,2.9526,2.9539,2.9569,2.9585,2.9608,2.9629,2.9624,2.9668,2.9664,2.9679,2.9678,2.9688,2.9688,2.9716,2.9696,2.9696,2.9696,2.9696,0,2.9307,2.9333,2.9366,2.9386,2.9415,2.9437,2.9466,2.9484,2.951,2.9533,2.9548,2.957,2.9595,2.962,2.9637,2.9668,2.9675,2.9686,2.969,2.9685,2.9684,2.9697,2.9696,2.9697,2.9697,2.9696,2.9696,0,2.9316,2.9339,2.9375,2.9411,2.9421,2.9441,2.9472,2.9492,2.951,2.954,2.9548,2.9577,2.9608,2.963,2.9669,2.968,2.9714,2.9718,2.9705,2.9707,2.9721,2.972,2.9759,2.9766,2.974,2.9741,2.9741,0,2.9329,2.9349,2.9388,2.9405,2.9423,2.945,2.947,2.9492,2.9512,2.9547,2.9562,2.9594,2.9621,2.9669,2.9693,2.9723,2.9729,2.974,2.9733,2.9728,2.973,2.973,2.9732,2.9742,2.9742,2.9742,2.9742,0,2.935,2.9361,2.9389,2.942,2.9443,2.9469,2.9495,2.9508,2.9536,2.9557,2.9588,2.9609,2.965,2.9681,2.9714,2.9732,2.9742,2.9744,2.9749,2.9745,2.9737,2.9743,2.9709,2.9743,2.9743,2.9743,2.9743,2.9743,2.9363,2.9382,2.9413,2.9443,2.9465,2.9489,2.951,2.9532,2.9559,2.9594,2.9605,2.9639,2.9668,2.9713,2.9731,2.9758,2.9758,2.9765,2.9767,2.9769,2.9769,2.9732,2.9763,2.9763,2.9763,2.9763,2.9763,0,2.9386,2.9407,2.9434,2.9471,2.9495,2.9502,2.9532,2.9552,2.9581,2.9607,2.9634,2.967,2.9701,2.9728,2.976,2.9776,2.9782,2.9784,2.9784,2.9788,2.9767,2.976,2.9779,2.9779,2.9779,2.9779,2.9779,2.9779,2.9401,2.9434,2.9449,2.9494,2.9514,2.9548,2.9564,2.9587,2.9608,2.9649,2.9675,2.9693,2.972,2.9754,2.9783,2.979,2.9801,2.9803,2.9811,2.9791,2.9789,2.9788,2.9781,2.9805,2.9805,2.9831,2.9831,2.9831]}]]